Powrót do katalogu

STARLINK-5574

AktywnyŁącznośćVLEO
NORAD 55362·PAYLOAD·🇺🇸 United States

Wystrzelony Jan 26, 2023 z Cape Canaveral Space Force Station

Loading…

Następne Przeloty (najbliższe 24 godziny)

TLE

ŚwieżeSource: CelesTrak SupGP

Epoka: Sep 15, 2026, 02:25 UTC

1 55362C 23013AH  26258.10118056  .00027438  00000+0  99384-3 0  2582
2 55362  43.0034 298.8230 0001560 297.3694  58.8252 15.27562943    16

Śledź STARLINK-5574 w czasie rzeczywistym z AllMySat

Download on the App Store